FDB9NZ OMDB-OKKK

Flight info

Callsign FDB9NZ
Flight time 1h 22m
Altitude 32000
Route RIDAP M557 TUMAK M600 KUMBO A453 DEBTI
Aircraft B738/M-SDE2E3FGHIRWXY/LB1

Departure

Time 2026-05-04 12:34
Airport Dubai International Airport (OMDB)

Arrival

Time 2026-05-04 13:56
Airport Kuwait International Airport (OKKK)
Time Latitude Longitude Altitude Speed Heading
2026-05-04 12:06 25.26400 55.35849 21 ft 0 kts 29°
2026-05-04 12:22 25.26388 55.35842 22 ft 2 kts 29°
2026-05-04 12:22 25.26374 55.35833 21 ft 2 kts 36°
2026-05-04 12:23 25.26362 55.35821 23 ft 2 kts 52°
2026-05-04 12:23 25.26354 55.35806 22 ft 2 kts 75°
2026-05-04 12:23 25.26354 55.35788 23 ft 2 kts 105°
2026-05-04 12:23 25.26359 55.35771 21 ft 2 kts 116°
2026-05-04 12:24 25.26363 55.35763 21 ft 0 kts 123°
2026-05-04 12:26 25.26355 55.35776 21 ft 6 kts 123°
2026-05-04 12:26 25.26315 55.35848 21 ft 14 kts 121°
2026-05-04 12:27 25.26246 55.35907 21 ft 13 kts 184°
2026-05-04 12:27 25.26166 55.35944 21 ft 14 kts 129°
2026-05-04 12:27 25.26106 55.36050 22 ft 19 kts 121°
2026-05-04 12:27 25.26039 55.36171 23 ft 18 kts 121°
2026-05-04 12:28 25.25973 55.36289 21 ft 18 kts 121°
2026-05-04 12:28 25.25909 55.36407 21 ft 19 kts 121°
2026-05-04 12:28 25.25841 55.36528 23 ft 18 kts 122°
2026-05-04 12:28 25.25777 55.36644 21 ft 18 kts 121°
2026-05-04 12:29 25.25711 55.36764 21 ft 20 kts 121°
2026-05-04 12:29 25.25632 55.36905 21 ft 22 kts 122°
2026-05-04 12:29 25.25552 55.37046 23 ft 21 kts 122°
2026-05-04 12:29 25.25476 55.37183 21 ft 21 kts 121°
2026-05-04 12:30 25.25403 55.37314 22 ft 20 kts 121°
2026-05-04 12:30 25.25332 55.37444 22 ft 19 kts 121°
2026-05-04 12:30 25.25263 55.37569 23 ft 19 kts 121°
2026-05-04 12:30 25.25196 55.37690 21 ft 18 kts 121°
2026-05-04 12:31 25.25131 55.37807 23 ft 18 kts 121°
2026-05-04 12:31 25.25066 55.37926 21 ft 20 kts 121°
2026-05-04 12:31 25.24986 55.38070 22 ft 22 kts 121°
2026-05-04 12:31 25.24907 55.38213 21 ft 22 kts 122°
2026-05-04 12:32 25.24841 55.38330 50 ft 14 kts 121°
2026-05-04 12:32 25.24715 55.38393 23 ft 11 kts 211°
2026-05-04 12:32 25.24657 55.38334 21 ft 12 kts 255°
2026-05-04 12:33 25.24680 55.38246 23 ft 16 kts 301°
2026-05-04 12:33 25.24843 55.37954 23 ft 79 kts 301°
2026-05-04 12:33 25.25246 55.37228 22 ft 140 kts 301°
2026-05-04 12:33 25.25845 55.36162 110 ft 180 kts 301°
2026-05-04 12:34 25.26529 55.35000 852 ft 180 kts 303°
2026-05-04 12:34 25.27199 55.33820 1631 ft 184 kts 302°
2026-05-04 12:34 25.27885 55.32590 2185 ft 194 kts 302°
2026-05-04 12:34 25.28612 55.31278 2539 ft 209 kts 303°
2026-05-04 12:35 25.29403 55.29835 2776 ft 227 kts 303°
2026-05-04 12:35 25.30240 55.28344 3315 ft 233 kts 305°
2026-05-04 12:35 25.31190 55.26844 3884 ft 239 kts 308°
2026-05-04 12:35 25.32157 55.25368 4675 ft 235 kts 308°
2026-05-04 12:36 25.33103 55.23905 5416 ft 232 kts 308°
2026-05-04 12:36 25.34058 55.22457 6054 ft 236 kts 307°
2026-05-04 12:36 25.35010 55.20959 6635 ft 240 kts 307°
2026-05-04 12:36 25.35753 55.19315 7245 ft 245 kts 284°
2026-05-04 12:37 25.35892 55.17358 7493 ft 268 kts 272°
2026-05-04 12:37 25.35826 55.15238 7870 ft 281 kts 270°
2026-05-04 12:37 25.35718 55.13063 8480 ft 284 kts 270°
2026-05-04 12:37 25.35610 55.10881 9174 ft 284 kts 270°
2026-05-04 12:38 25.35543 55.09433 9632 ft 285 kts 270°
2026-05-04 12:38 25.35449 55.07240 10206 ft 289 kts 270°
2026-05-04 12:38 25.35360 55.04947 10370 ft 309 kts 270°
2026-05-04 12:38 25.35268 55.02504 10518 ft 328 kts 270°
2026-05-04 12:39 25.35172 54.99915 10655 ft 344 kts 270°
2026-05-04 12:39 25.35072 54.97234 11004 ft 353 kts 270°
2026-05-04 12:39 25.34971 54.94507 11501 ft 356 kts 270°
2026-05-04 12:39 25.34877 54.91756 12049 ft 358 kts 272°
2026-05-04 12:40 25.35236 54.89046 12542 ft 358 kts 289°
2026-05-04 12:40 25.36029 54.86432 13099 ft 360 kts 290°
2026-05-04 12:40 25.36825 54.83789 13626 ft 364 kts 290°
2026-05-04 12:40 25.37614 54.81114 14132 ft 367 kts 289°
2026-05-04 12:41 25.38393 54.78420 14688 ft 368 kts 289°
2026-05-04 12:41 25.39167 54.75718 15259 ft 370 kts 289°
2026-05-04 12:41 25.39943 54.72998 15794 ft 372 kts 289°
2026-05-04 12:41 25.40727 54.70259 16316 ft 375 kts 289°
2026-05-04 12:42 25.41523 54.67503 16839 ft 377 kts 289°
2026-05-04 12:42 25.42326 54.64730 17377 ft 380 kts 288°
2026-05-04 12:42 25.43132 54.61941 17902 ft 382 kts 288°
2026-05-04 12:42 25.43950 54.59134 18364 ft 385 kts 289°
2026-05-04 12:43 25.44780 54.56310 18809 ft 387 kts 288°
2026-05-04 12:43 25.45618 54.53469 19255 ft 389 kts 288°
2026-05-04 12:43 25.46459 54.50613 19697 ft 392 kts 288°
2026-05-04 12:43 25.47306 54.47735 20118 ft 395 kts 288°
2026-05-04 12:44 25.48156 54.44838 20540 ft 397 kts 288°
2026-05-04 12:44 25.49013 54.41915 20979 ft 399 kts 287°
2026-05-04 12:44 25.49871 54.38983 21413 ft 402 kts 287°
2026-05-04 12:44 25.50733 54.36037 21882 ft 403 kts 287°
2026-05-04 12:45 25.51597 54.33081 22314 ft 405 kts 287°
2026-05-04 12:45 25.52467 54.30103 22709 ft 408 kts 287°
2026-05-04 12:45 25.53341 54.27106 23089 ft 410 kts 287°
2026-05-04 12:45 25.54220 54.24095 23446 ft 413 kts 287°
2026-05-04 12:46 25.55115 54.21056 23783 ft 414 kts 287°
2026-05-04 12:46 25.56014 54.18022 24153 ft 415 kts 287°
2026-05-04 12:46 25.56913 54.14988 24520 ft 415 kts 287°
2026-05-04 12:46 25.57812 54.11949 24857 ft 416 kts 287°
2026-05-04 12:47 25.58714 54.08894 25186 ft 417 kts 287°
2026-05-04 12:47 25.59602 54.05873 25502 ft 419 kts 287°
2026-05-04 12:47 25.60484 54.02797 25817 ft 420 kts 286°
2026-05-04 12:47 25.61360 53.99705 26134 ft 421 kts 286°
2026-05-04 12:48 25.62235 53.96604 26426 ft 422 kts 286°
2026-05-04 12:48 25.63111 53.93499 26731 ft 423 kts 286°
2026-05-04 12:48 25.63992 53.90382 27068 ft 423 kts 286°
2026-05-04 12:48 25.64872 53.87269 27361 ft 424 kts 286°
2026-05-04 12:49 25.65766 53.84104 27651 ft 425 kts 286°
2026-05-04 12:49 25.66650 53.80978 28017 ft 424 kts 286°
2026-05-04 12:49 25.67517 53.77910 28468 ft 421 kts 286°
2026-05-04 12:49 25.68399 53.74785 28956 ft 417 kts 286°
2026-05-04 12:50 25.69261 53.71724 29371 ft 416 kts 285°
2026-05-04 12:50 25.70111 53.68702 29728 ft 415 kts 285°
2026-05-04 12:50 25.70968 53.65651 30055 ft 414 kts 285°
2026-05-04 12:50 25.71821 53.62610 30398 ft 412 kts 285°
2026-05-04 12:51 25.72672 53.59576 30729 ft 411 kts 285°
2026-05-04 12:51 25.73520 53.56551 31029 ft 411 kts 285°
2026-05-04 12:51 25.74367 53.53526 31342 ft 410 kts 285°
2026-05-04 12:51 25.75212 53.50506 31673 ft 409 kts 285°
2026-05-04 12:52 25.76065 53.47476 31711 ft 414 kts 285°
2026-05-04 12:52 25.77803 53.41327 31730 ft 422 kts 285°
2026-05-04 12:53 25.79562 53.35102 31739 ft 423 kts 285°
2026-05-04 12:53 25.81327 53.28833 31746 ft 428 kts 285°
2026-05-04 12:54 25.83100 53.22523 31731 ft 428 kts 285°
2026-05-04 12:54 25.85039 53.16278 31738 ft 428 kts 291°
2026-05-04 12:55 25.87509 53.10265 31746 ft 428 kts 292°
2026-05-04 12:55 25.90011 53.04262 31739 ft 428 kts 292°
2026-05-04 12:56 25.92469 52.98250 31743 ft 428 kts 291°
2026-05-04 12:56 25.94910 52.92223 31745 ft 428 kts 291°
2026-05-04 12:57 25.97349 52.86184 31751 ft 428 kts 291°
2026-05-04 12:57 25.99787 52.80144 31747 ft 429 kts 291°
2026-05-04 12:58 26.02234 52.74084 31749 ft 430 kts 292°
2026-05-04 12:58 26.04895 52.68118 31750 ft 431 kts 294°
2026-05-04 12:59 26.07627 52.62181 31739 ft 431 kts 294°
2026-05-04 12:59 26.10316 52.56225 31745 ft 431 kts 293°
2026-05-04 13:00 26.12998 52.50265 31741 ft 431 kts 294°
2026-05-04 13:00 26.15697 52.44319 31745 ft 430 kts 294°
2026-05-04 13:01 26.18392 52.38368 31760 ft 430 kts 293°
2026-05-04 13:01 26.21085 52.32409 31742 ft 430 kts 293°
2026-05-04 13:02 26.23731 52.26445 31742 ft 429 kts 292°
2026-05-04 13:02 26.26310 52.20455 31744 ft 428 kts 292°
2026-05-04 13:03 26.28888 52.14473 31761 ft 428 kts 292°
2026-05-04 13:03 26.31472 52.08496 31772 ft 428 kts 292°
2026-05-04 13:04 26.34024 52.02547 31742 ft 428 kts 292°
2026-05-04 13:04 26.36579 51.96562 31754 ft 427 kts 292°
2026-05-04 13:05 26.38863 51.90468 31755 ft 425 kts 287°
2026-05-04 13:05 26.40880 51.84273 31751 ft 425 kts 287°
2026-05-04 13:06 26.42954 51.78103 31749 ft 425 kts 288°
2026-05-04 13:06 26.45047 51.71926 31766 ft 426 kts 287°
2026-05-04 13:07 26.47138 51.65740 31753 ft 426 kts 288°
2026-05-04 13:07 26.49225 51.59558 31756 ft 426 kts 287°
2026-05-04 13:08 26.51280 51.53354 31753 ft 426 kts 287°
2026-05-04 13:08 26.53331 51.47156 31759 ft 426 kts 287°
2026-05-04 13:09 26.55384 51.40951 31758 ft 426 kts 287°
2026-05-04 13:09 26.57436 51.34746 31771 ft 426 kts 287°
2026-05-04 13:10 26.59483 51.28544 31764 ft 426 kts 287°
2026-05-04 13:10 26.61631 51.22375 31753 ft 428 kts 293°
2026-05-04 13:11 26.65037 51.16860 31767 ft 436 kts 305°
2026-05-04 13:11 26.68959 51.11689 31757 ft 436 kts 305°
2026-05-04 13:12 26.72861 51.06510 31770 ft 435 kts 304°
2026-05-04 13:12 26.76742 51.01315 31760 ft 435 kts 304°
2026-05-04 13:13 26.80608 50.96118 31763 ft 434 kts 304°
2026-05-04 13:13 26.84470 50.90916 31762 ft 434 kts 304°
2026-05-04 13:14 26.88328 50.85714 31782 ft 434 kts 304°
2026-05-04 13:14 26.92179 50.80515 31767 ft 434 kts 304°
2026-05-04 13:15 26.96028 50.75314 31767 ft 433 kts 304°
2026-05-04 13:15 26.99871 50.70116 31770 ft 433 kts 304°
2026-05-04 13:16 27.03707 50.64920 31772 ft 432 kts 304°
2026-05-04 13:16 27.07540 50.59722 31777 ft 432 kts 303°
2026-05-04 13:17 27.11368 50.54525 31771 ft 432 kts 303°
2026-05-04 13:17 27.15186 50.49334 31772 ft 431 kts 303°
2026-05-04 13:18 27.19001 50.44143 31776 ft 431 kts 303°
2026-05-04 13:18 27.22165 50.39832 31786 ft 430 kts 303°
2026-05-04 13:19 27.25974 50.34636 31775 ft 430 kts 303°
2026-05-04 13:19 27.29779 50.29441 31775 ft 430 kts 303°
2026-05-04 13:20 27.33578 50.24247 31776 ft 430 kts 303°
2026-05-04 13:20 27.37373 50.19052 31770 ft 430 kts 303°
2026-05-04 13:21 27.41167 50.13853 31778 ft 430 kts 303°
2026-05-04 13:21 27.44962 50.08646 31778 ft 430 kts 303°
2026-05-04 13:22 27.48758 50.03431 31778 ft 431 kts 303°
2026-05-04 13:22 27.52554 49.98210 31795 ft 431 kts 303°
2026-05-04 13:23 27.56356 49.92974 31776 ft 432 kts 303°
2026-05-04 13:23 27.60157 49.87734 31780 ft 432 kts 303°
2026-05-04 13:24 27.63959 49.82486 31785 ft 432 kts 303°
2026-05-04 13:24 27.67761 49.77233 31799 ft 432 kts 303°
2026-05-04 13:25 27.73462 49.69341 31774 ft 432 kts 303°
2026-05-04 13:25 27.77232 49.64116 31779 ft 432 kts 303°
2026-05-04 13:26 27.81023 49.58854 31780 ft 432 kts 303°
2026-05-04 13:26 27.84836 49.53555 31791 ft 432 kts 303°
2026-05-04 13:27 27.88623 49.48286 31774 ft 432 kts 303°
2026-05-04 13:27 27.92382 49.43050 31779 ft 432 kts 303°
2026-05-04 13:28 27.96165 49.37774 31780 ft 432 kts 303°
2026-05-04 13:28 27.99942 49.32498 31790 ft 430 kts 303°
2026-05-04 13:29 28.01821 49.29874 31497 ft 429 kts 303°
2026-05-04 13:29 28.03697 49.27251 30877 ft 428 kts 303°
2026-05-04 13:29 28.05569 49.24631 30303 ft 427 kts 303°
2026-05-04 13:29 28.07441 49.22007 29719 ft 430 kts 303°
2026-05-04 13:30 28.09326 49.19363 29033 ft 434 kts 303°
2026-05-04 13:30 28.11227 49.16695 28336 ft 435 kts 304°
2026-05-04 13:30 28.13120 49.14042 27694 ft 431 kts 304°
2026-05-04 13:30 28.14998 49.11408 27041 ft 428 kts 304°
2026-05-04 13:31 28.16865 49.08788 26405 ft 425 kts 304°
2026-05-04 13:31 28.18724 49.06176 25786 ft 423 kts 304°
2026-05-04 13:31 28.20560 49.03592 25170 ft 420 kts 304°
2026-05-04 13:31 28.22389 49.01017 24575 ft 417 kts 304°
2026-05-04 13:32 28.24202 48.98463 23989 ft 415 kts 304°
2026-05-04 13:32 28.26006 48.95921 23418 ft 413 kts 304°
2026-05-04 13:32 28.27896 48.93469 22735 ft 414 kts 311°
2026-05-04 13:32 28.30101 48.91332 22133 ft 423 kts 320°
2026-05-04 13:33 28.32634 48.89544 21952 ft 434 kts 325°
2026-05-04 13:33 28.35266 48.87831 21837 ft 438 kts 326°
2026-05-04 13:33 28.37913 48.86112 21786 ft 438 kts 326°
2026-05-04 13:33 28.40544 48.84390 21780 ft 436 kts 325°
2026-05-04 13:34 28.43168 48.82657 21773 ft 437 kts 325°
2026-05-04 13:34 28.45792 48.80912 21782 ft 437 kts 325°
2026-05-04 13:34 28.48412 48.79165 21774 ft 437 kts 325°
2026-05-04 13:34 28.51038 48.77413 21776 ft 437 kts 325°
2026-05-04 13:35 28.53531 48.75467 21761 ft 431 kts 312°
2026-05-04 13:35 28.56403 48.69746 21792 ft 417 kts 283°
2026-05-04 13:35 28.56848 48.66508 21771 ft 414 kts 269°
2026-05-04 13:36 28.56644 48.63250 21790 ft 413 kts 263°
2026-05-04 13:36 28.56290 48.60013 21777 ft 413 kts 262°
2026-05-04 13:36 28.55918 48.56779 21773 ft 413 kts 262°
2026-05-04 13:36 28.55558 48.53538 21775 ft 413 kts 262°
2026-05-04 13:37 28.55215 48.50301 21775 ft 412 kts 263°
2026-05-04 13:37 28.54884 48.47056 21790 ft 412 kts 263°
2026-05-04 13:37 28.54557 48.43817 21789 ft 412 kts 263°
2026-05-04 13:37 28.54341 48.41678 21789 ft 412 kts 262°
2026-05-04 13:38 28.54238 48.37368 21779 ft 414 kts 276°
2026-05-04 13:38 28.54999 48.34201 21787 ft 418 kts 290°
2026-05-04 13:38 28.56220 48.31191 21794 ft 419 kts 292°
2026-05-04 13:38 28.57469 48.28257 21773 ft 403 kts 292°
2026-05-04 13:39 28.58653 48.25449 21771 ft 387 kts 292°
2026-05-04 13:39 28.59790 48.22680 21786 ft 384 kts 291°
2026-05-04 13:39 28.60887 48.19976 21779 ft 369 kts 291°
2026-05-04 13:39 28.61958 48.17348 21782 ft 364 kts 293°
2026-05-04 13:40 28.63439 48.14985 21603 ft 375 kts 310°
2026-05-04 13:40 28.65547 48.13178 21089 ft 386 kts 327°
2026-05-04 13:40 28.68013 48.11936 20633 ft 388 kts 332°
2026-05-04 13:40 28.70518 48.10813 20150 ft 386 kts 333°
2026-05-04 13:41 28.73012 48.09715 19677 ft 383 kts 333°
2026-05-04 13:41 28.75489 48.08613 19209 ft 380 kts 333°
2026-05-04 13:41 28.77935 48.07506 18773 ft 376 kts 333°
2026-05-04 13:42 28.82738 48.05298 17942 ft 368 kts 333°
2026-05-04 13:42 28.85101 48.04205 17474 ft 365 kts 333°
2026-05-04 13:42 28.87441 48.03121 17017 ft 362 kts 333°
2026-05-04 13:42 28.89767 48.02044 16557 ft 359 kts 333°
2026-05-04 13:43 28.92072 48.00976 16118 ft 356 kts 333°
2026-05-04 13:43 28.94364 47.99914 15671 ft 354 kts 333°
2026-05-04 13:43 28.96641 47.98858 15236 ft 352 kts 333°
2026-05-04 13:43 28.98906 47.97808 14805 ft 350 kts 333°
2026-05-04 13:44 29.01167 47.96784 14379 ft 350 kts 337°
2026-05-04 13:44 29.03605 47.96430 13941 ft 361 kts
2026-05-04 13:44 29.06052 47.97146 13522 ft 368 kts 22°
2026-05-04 13:44 29.08257 47.98566 13109 ft 368 kts 28°
2026-05-04 13:45 29.10460 48.00117 12634 ft 367 kts 29°
2026-05-04 13:45 29.12620 48.01659 12190 ft 363 kts 29°
2026-05-04 13:45 29.14739 48.03163 11734 ft 354 kts 28°
2026-05-04 13:45 29.16787 48.04601 11296 ft 345 kts 28°
2026-05-04 13:46 29.18811 48.06009 10864 ft 337 kts 28°
2026-05-04 13:46 29.20793 48.07382 10510 ft 328 kts 28°
2026-05-04 13:46 29.22720 48.08714 10177 ft 319 kts 28°
2026-05-04 13:46 29.24593 48.10010 9854 ft 311 kts 28°
2026-05-04 13:47 29.26434 48.11284 9579 ft 305 kts 28°
2026-05-04 13:47 29.28237 48.12489 9214 ft 296 kts 22°
2026-05-04 13:47 29.30183 48.12963 8864 ft 280 kts 354°
2026-05-04 13:47 29.32027 48.12536 8535 ft 264 kts 334°
2026-05-04 13:48 29.33631 48.11599 8154 ft 255 kts 328°
2026-05-04 13:48 29.35167 48.10615 7759 ft 249 kts 327°
2026-05-04 13:48 29.36652 48.09665 7358 ft 240 kts 328°
2026-05-04 13:48 29.38093 48.08752 6989 ft 235 kts 328°
2026-05-04 13:49 29.39519 48.07851 6633 ft 232 kts 328°
2026-05-04 13:49 29.40924 48.06966 6315 ft 228 kts 329°
2026-05-04 13:49 29.42252 48.06013 5992 ft 221 kts 314°
2026-05-04 13:49 29.42978 48.04553 5714 ft 208 kts 282°
2026-05-04 13:50 29.43034 48.02934 5418 ft 201 kts 261°
2026-05-04 13:50 29.42587 48.01446 5173 ft 194 kts 248°
2026-05-04 13:50 29.42048 48.00027 4933 ft 195 kts 246°
2026-05-04 13:50 29.41505 47.98599 4698 ft 196 kts 246°
2026-05-04 13:51 29.40958 47.97152 4467 ft 198 kts 246°
2026-05-04 13:51 29.40405 47.95692 4180 ft 203 kts 245°
2026-05-04 13:51 29.39836 47.94210 3879 ft 202 kts 246°
2026-05-04 13:51 29.39279 47.92738 3573 ft 199 kts 246°
2026-05-04 13:52 29.37975 47.90012 3104 ft 194 kts 222°
2026-05-04 13:52 29.36808 47.89230 2899 ft 193 kts 188°
2026-05-04 13:52 29.35548 47.89393 2649 ft 182 kts 154°
2026-05-04 13:53 29.34434 47.90034 2396 ft 173 kts 149°
2026-05-04 13:53 29.33385 47.90668 2132 ft 167 kts 147°
2026-05-04 13:53 29.32400 47.91331 1912 ft 162 kts 146°
2026-05-04 13:54 29.30552 47.92569 1462 ft 149 kts 146°
2026-05-04 13:54 29.29643 47.93136 1276 ft 150 kts 148°
2026-05-04 13:54 29.27747 47.94171 961 ft 150 kts 152°
2026-05-04 13:55 29.26800 47.94687 742 ft 152 kts 151°
2026-05-04 13:55 29.24879 47.95710 410 ft 148 kts 153°
2026-05-04 13:55 29.23962 47.96205 238 ft 143 kts 153°
2026-05-04 13:56 29.23144 47.96645 216 ft 106 kts 156°
2026-05-04 13:56 29.22672 47.96891 211 ft 43 kts 155°
2026-05-04 13:56 29.22243 47.97119 211 ft 30 kts 156°
2026-05-04 13:57 29.22089 47.97199 212 ft 18 kts 152°
2026-05-04 13:57 29.21991 47.97284 215 ft 17 kts 129°
2026-05-04 13:58 29.22044 47.97468 208 ft 13 kts 334°
2026-05-04 13:58 29.22206 47.97383 212 ft 13 kts 334°
2026-05-04 13:58 29.22290 47.97336 212 ft 16 kts 335°
2026-05-04 13:59 29.22414 47.97270 212 ft 22 kts 335°
2026-05-04 13:59 29.22555 47.97195 217 ft 22 kts 335°
2026-05-04 13:59 29.22827 47.97052 213 ft 21 kts 334°
2026-05-04 14:00 29.22913 47.97005 212 ft 20 kts 335°
2026-05-04 14:00 29.23164 47.96874 213 ft 19 kts 336°
2026-05-04 14:00 29.23291 47.96808 211 ft 20 kts 335°
2026-05-04 14:01 29.23417 47.96740 210 ft 20 kts 334°
2026-05-04 14:01 29.23540 47.96675 208 ft 19 kts 335°
2026-05-04 14:01 29.23683 47.96737 204 ft 18 kts 70°
2026-05-04 14:02 29.23731 47.96861 191 ft 14 kts 63°
2026-05-04 14:02 29.23799 47.96886 187 ft 7 kts 334°
2026-05-04 14:02 29.23822 47.96872 185 ft 0 kts 334°